OE5MIL-13 Weather Reports


Display with metric or nautical units.
time (UTC)temp
F
wind
direction
speed
MPH
gust
MPH
rain 1hr
in
rain 24hr
in
rain mn
in
humidity
%
barometer
mb
20260903032038 48 310 9.0 14.0 0.00 0.00 0.00 100
20260903030037 48 309 12.0 12.0 0.00 0.00 0.00 100
20260903024036 48 313 9.0 16.0 0.00 0.00 0.00 100
20260903022034 48 317 5.0 17.0 0.00 0.00 0.00 100
20260903020033 48 333 10.0 17.0 0.00 0.00 0.00 100
20260903014032 48 278 7.0 14.0 0.00 0.00 0.00 100
20260903012031 49 322 6.0 14.0 0.00 0.00 0.00 100
20260903010030 48 310 4.0 10.0 0.00 0.00 0.00 100
20260903004029 47 307 7.0 10.0 0.00 0.00 0.00 100
20260903002028 47 343 2.0 11.0 0.00 0.00 0.00 100
20260903000026 47 300 1.0 10.0 0.00 0.00 0.00 100
20260902234025 47 305 12.0 15.0 0.00 0.00 0.00 100
20260902232024 48 330 4.0 13.0 0.00 0.00 0.00 100
20260902230023 48 299 8.0 14.0 0.00 0.00 0.00 100
20260902224022 48 319 5.0 7.0 0.00 0.00 0.00 100
20260902222021 48 324 3.0 10.0 0.00 0.00 0.00 100
20260902220020 48 292 6.0 9.0 0.00 0.00 0.00 100
20260902214019 48 358 2.0 5.0 0.00 0.00 0.00 100
20260902212017 48 336 2.0 7.0 0.00 0.00 0.00 100
20260902210016 49 313 1.0 6.0 0.00 0.00 0.00 100
20260902204015 49 319 2.0 6.0 0.00 0.00 0.00 100
20260902202014 49 312 4.0 6.0 0.00 0.00 0.00 100
20260902200013 48 278 5.0 5.0 0.00 0.00 0.00 100
20260902194012 49 354 1.0 8.0 0.00 0.00 0.00 100
20260902192010 48 302 6.0 8.0 0.00 0.00 0.00 100
20260902190009 49 137 0.0 0.0 0.00 0.00 0.00 100
20260902184009 50 137 0.0 0.0 0.00 0.00 0.00 100
20260902182007 50 150 1.0 3.0 0.00 0.00 0.00 100
20260902180007 51 288 0.0 0.0 0.00 0.00 0.00 100
20260902174005 52 288 0.0 0.0 0.00 0.00 0.00 100
20260902170003 54 330 0.0 0.0 0.00 0.00 0.00 100
20260902164001 57 324 0.0 3.0 0.00 0.00 0.00 100
20260902162000 56 337 0.0 4.0 0.00 0.00 0.00 100
20260902155959 57 291 2.0 5.0 0.00 0.00 0.00 100
20260902153958 56 262 10.0 12.0 0.00 0.00 0.00 100
20260902151957 56 7 0.0 4.0 0.00 0.00 0.00 100
20260902145956 56 358 3.0 8.0 0.00 0.00 0.00 100
20260902143955 55 330 2.0 5.0 0.00 0.00 0.00 100
20260902141953 57 338 3.0 7.0 0.00 0.00 0.00 100
20260902135952 56 299 4.0 6.0 0.00 0.00 0.00 100
20260902133951 57 340 2.0 6.0 0.00 0.00 0.00 100
20260902131950 55 305 2.0 3.0 0.00 0.00 0.00 100
20260902125949 58 317 0.0 6.0 0.00 0.00 0.00 100
20260902123948 56 344 2.0 6.0 0.00 0.00 0.00 100
20260902121947 56 298 4.0 7.0 0.00 0.00 0.00 100
20260902115945 59 198 1.0 8.0 0.00 0.00 0.00 100
20260902113945 59 357 3.0 7.0 0.00 0.00 0.00 100
20260902111943 57 247 0.0 7.0 0.00 0.00 0.00 100
20260902105942 57 42 0.0 7.0 0.00 0.00 0.00 100
20260902103941 56 357 3.0 7.0 0.00 0.00 0.00 100
20260902101940 57 338 5.0 5.0 0.00 0.00 0.00 100
20260902095939 55 185 3.0 7.0 0.00 0.00 0.00 100
20260902093938 54 295 5.0 7.0 0.00 0.00 0.00 100
20260902091936 54 5 2.0 6.0 0.00 0.00 0.00 100
20260902085938 53 309 4.0 6.0 0.00 0.00 0.00 100
20260902083935 51 312 5.0 6.0 0.00 0.00 0.00 100
20260902081933 51 352 2.0 5.0 0.00 0.00 0.00 100
20260902075933 49 348 0.0 4.0 0.00 0.00 0.00 100
20260902073931 49 348 2.0 5.0 0.00 0.00 0.00 100
20260902071930 48 246 0.0 1.0 0.00 0.00 0.00 100
20260902065928 46 265 0.0 0.0 0.00 0.00 0.00 100
20260902063927 45 75 0.0 0.0 0.00 0.00 0.00 100
20260902061926 43 75 0.0 0.0 0.00 0.00 0.00 100
20260902055925 41 75 0.0 0.0 0.00 0.00 0.00 100
20260902053924 40 75 0.0 0.0 0.00 0.00 0.00 100
20260902051923 39 75 0.0 0.0 0.00 0.00 0.00 100
20260902045922 39 75 0.0 0.0 0.00 0.00 0.00 100
20260902043920 39 75 0.0 0.0 0.00 0.00 0.00 100
20260902041920 39 75 0.0 0.0 0.00 0.00 0.00 100
20260902035918 39 75 0.0 0.0 0.00 0.00 0.00 100
20260902033917 40 75 0.0 0.0 0.00 0.00 0.00 100